Карнауховка

Украина / Днепропетровская область     48°28′11″N   34°43′52″E
темп.,
°C
ветер,
м/с
пор.,
м/с
влажн.,
%
обл.,
%
осадки,
мм/ч
давл.,
гПа
погр.,
м
1 марта, пн
пн123:000сз3593100 0.0 1022210
02:00−1сз239480 0.0 102277
05:00−1ссз239764 0.0 1023101
08:000ссз239280 0.1 1025262
11:00+2с238196 0.1 1027526
14:00+3ссв347098 0.1 1027883
17:00+2св127189 0.0 102880
20:00+1з127772 0.0 103022
2 марта, вт
вт223:000сз348560 0.0 103083
02:00−1зсз358943 0.0 1030151
05:00−1з378481 0.0 1028242
08:00+1зюз597571 0.0 1028414
11:00+4зюз7106798 0.0 1025698
14:00+6зюз8126599 0.0 1022777
17:00+5з6127665 0.0 1019753
20:00+4сз5118283 0.1 1019775
3 марта, ср
ср323:00+2сз61186100 0.1 1018695
02:00+2сз71195100 0.4 1019666
05:00+1ссз7118286 0.1 1021921
08:00+1ссз697971 0.1 1024740
11:00+2сз687393 0.0 1024886
14:00+4сз586596 0.0 10251066
17:00+3ссз256821 0.0 1025186
20:00+1сз238111 0.0 102642
4 марта, чт
чт423:000зюз12840 0.0 102623
02:000зюз35780 0.0 1025102
05:000юз48810 0.0 1024194
08:00+2юз5107011 0.0 1023411
11:00+6юз795328 0.0 1020933
14:00+8юз7105114 0.0 10171053
17:00+7юз5125952 0.0 1015472
20:00+5юз8167537 0.0 1014548
5 марта, пт
пт523:00+3юз8168347 0.0 1014496
02:00+2юз7148729 0.0 1013428
05:00+1юз612933 0.0 1013304
08:00+2юз6109224 0.0 1013304
11:00+7ююз697895 0.0 1012444
14:00+11ююз7106366 0.0 1010946
17:00+10ююз511693 0.0 1009498
20:00+7ююз7138150 0.0 1009476